Preview of NWS' New Version of Forecast
This preview is not operational and should not be used for support decisions.

Regional Weather Roundup (RWR)

Issued by National Weather Service (NWS)

                            
000
ASUS45 KABQ 191801
RWRNM 
NEW MEXICO REGIONAL WEATHER ROUNDUP
NATIONAL WEATHER SERVICE ALBUQUERQUE NM
1100 AM MST TUE FEB 19 2019

NOTE: "FAIR" MEANS FEW OR NO CLOUDS BELOW 12,000 FEET AGL WITH NO
       SIGNIFICANT WEATHER OR OBSTRUCTIONS TO VISION.

      THIS PRODUCT IS RELEASED AS TWO VERSIONS.  ONE VERSION NEAR
      THE TOP OF THE HOUR CONTAINING PRELIMINARY DATA FROM ALBUQUERQUE
      AND OTHER STATIONS.  A FINAL VERSION WITH ADDITIONAL DATA IS 
      ISSUED ABOUT 10 MINUTES AFTER THE HOUR.
 
NMZ501-503-504-510>518-191900-
NORTHWEST PLATEAU/NORTHCENTRAL MOUNTAINS
  
CITY           SKY/WX    TMP DP  RH WIND       PRES   REMARKS
FARMINGTON     LGT SNOW  26  23  88 W9        29.79F VSB 1   WCI  17  
6HR MIN TEMP:  21; 6HR MAX TEMP:  26; 6HR PCP:  0.02;                

LOS ALAMOS     PTSUNNY   17  11  78 S10       29.78F HAZE    WCI   4  
SANTA FE       LGT SNOW  21  12  68 SE15      29.82F WCI   8          
6HR MIN TEMP:  17; 6HR MAX TEMP:  22; 6HR PCP: TRACE;                

TAOS           LGT SNOW  21  14  74 MISG      29.79F VSB 1            
ANGEL FIRE       N/A     20   9  62 S5        29.69F WCI  14          

$$
NMZ402-403-502-505>509-191900-
WESTCENTRAL MOUNTAINS/SOUTHWEST MOUNTAINS
  
CITY           SKY/WX    TMP DP  RH WIND       PRES   REMARKS
GALLUP         FAIR      24  17  74 SW12      29.80S WCI  13          
6HR MIN TEMP:  11; 6HR MAX TEMP:  24; 6HR PCP: TRACE;                

GRANTS         FLURRIES  24  17  74 SE13      29.82S WCI  13          
SILVER CITY    CLOUDY    34  17  48 W14G21    29.86S WCI  25          

$$
NMZ407-409-411-412-191900-
SOUTHERN DESERTS
  
CITY           SKY/WX    TMP DP  RH WIND       PRES   REMARKS
DEMING         CLOUDY    43  20  39 W17G24    29.88S                  
6HR MIN TEMP:  32; 6HR MAX TEMP:  43; 6HR PCP: TRACE;                

LAS CRUCES     CLOUDY    35  34  96 S8        29.90R WCI  28          
HOLLOMAN AFB   FLURRIES  37  19  48 SE9       29.91F WCI  31          
ALAMOGORDO     CLOUDY    36  18  48 CALM      29.90S                  
T OR C         FAIR      40  22  48 S7        29.82F                  
6HR MIN TEMP:  29; 6HR MAX TEMP:  40;                                


$$
NMZ519>523-191900-
CENTRAL VALLEYS/CENTRAL HIGHLANDS
  
CITY           SKY/WX    TMP DP  RH WIND       PRES   REMARKS
ALBUQUERQUE    LGT SNOW  25  20  81 VRB6      29.86F WCI  18          
6HR MIN TEMP:  20; 6HR MAX TEMP:  25; 6HR PCP:  0.02;                

DOUBLE EAGLE   CLOUDY    21  16  79 CALM      29.85F                  
CLINES CORNERS HVY SNOW  14   8  77 E10       29.80F VSB 1/4 WCI   1  
6HR MIN TEMP:  11; 6HR MAX TEMP:  14; 6HR PCP:  0.01;                

BELEN          MOCLDY    27  21  79 NW6       29.87S WCI  20          
6HR MIN TEMP:  22; 6HR MAX TEMP:  27;                                

SOCORRO        FAIR      32  22  65 NE10      29.86S WCI  23          
6HR MIN TEMP:  24; 6HR MAX TEMP:  32;                                


$$
NMZ524>526-539-540-191900-
SOUTHCENTRAL MOUNTAINS
  
CITY           SKY/WX    TMP DP  RH WIND       PRES   REMARKS
RUIDOSO        NOT AVBL                                               

$$
NMZ527>531-191900-
NORTHEAST HIGHLANDS/NORTHEAST PLAINS
  
CITY           SKY/WX    TMP DP  RH WIND       PRES   REMARKS
LAS VEGAS      LGT SNOW  14  10  84 S3        29.81F FOG              
6HR MIN TEMP:  10; 6HR MAX TEMP:  14; 6HR PCP: TRACE;                

RATON          LGT SNOW  14  10  84 S5        29.81F FOG     WCI   6  
6HR MIN TEMP:  10; 6HR MAX TEMP:  15; 6HR PCP:  0.02;                

CLAYTON        CLOUDY    16  12  84 S10       29.91F FOG     WCI   4  
6HR MIN TEMP:  12; 6HR MAX TEMP:  16; 6HR PCP: TRACE;                


$$
NMZ532>537-191900-
EASTCENTRAL PLAINS
  
CITY           SKY/WX    TMP DP  RH WIND       PRES   REMARKS
SANTA ROSA     LGT SNOW  22  17  82 CALM      29.92F                  
TUCUMCARI      CLOUDY    24  14  65 SE6       29.95F WCI  17          
6HR MIN TEMP:  21; 6HR MAX TEMP:  24; 6HR PCP: TRACE;                

CANNON AFB     NOT AVBL                                               
CLOVIS AIRPORT LGT SNOW  22  19  89 E6        29.98F FOG     WCI  14  

$$
NMZ028-029-538-191900-
SOUTHEAST PLAINS
  
CITY           SKY/WX    TMP DP  RH WIND       PRES   REMARKS
ROSWELL        CLOUDY    29  18  63 SE6       29.96F WCI  23          
6HR MIN TEMP:  26; 6HR MAX TEMP:  29;                                

ARTESIA        CLOUDY    28  18  64 SE3       29.98F                  
CARLSBAD       CLOUDY    29  18  63 N6        29.99F WCI  23          
6HR MIN TEMP:  26; 6HR MAX TEMP:  29;                                

HOBBS          CLOUDY    27  19  74 E7        29.98F WCI  19          


$$